Find Starlink 32850

NORAD ID: 62950 Int'l Des: 2025-029 Owner: SPXS Country: US Constellation: starlink operational
LEOCIRCULAR

实时位置

正在加载3D地球...

关于 Starlink 32850

正在加载描述...

即将过境

Passes for default location (London). Set your location on the main map for personalized predictions.

高度历史

Loading altitude history...

两行轨道根数

1 62950U 25029C 26126.26895020 .00017772 00000-0 58304-3 0 9996
2 62950 53.1605 324.9781 0001059 92.1024 268.0099 15.31702153 70145
Epoch: May 6, 2026 • Age: 6 hours

当前状态

高度 474.5 km
速度 7.63 km/s
星下点 -13.58°S, 109.78°E
发射日期 Feb 11, 2025
运行时间 1.2 years
类型 internet

技术详情

分类 Payload
质量 730.00 kg
干质量 700.00 kg
总质量 730.00 kg
长度 0.30 m
直径 4.10 m
跨度 29.00 m
形状 Box + pan
制造商 SPXS
平台类型 Starlink V2M
阶段状态 In Orbit
所有者/国家 SPXS/US

Most Searched